Year,Month,Day,Hour,Minute,Value (Times are PST for temperature in C)
2016,10,21,00,00,8.20
2016,10,21,00,01,8.20
2016,10,21,00,02,8.20
2016,10,21,00,03,8.20
2016,10,21,00,04,8.20
2016,10,21,00,05,8.20
2016,10,21,00,06,8.20
2016,10,21,00,07,8.20
2016,10,21,00,08,8.10
2016,10,21,00,09,8.10
2016,10,21,00,10,8.10
2016,10,21,00,11,8.10
2016,10,21,00,12,8.10
2016,10,21,00,13,8.10
2016,10,21,00,14,8.10
2016,10,21,00,15,8.10
2016,10,21,00,16,8.10
2016,10,21,00,17,8.10
2016,10,21,00,18,8.10
2016,10,21,00,19,8.10
2016,10,21,00,20,8.10
2016,10,21,00,21,8.10
2016,10,21,00,22,8.10
2016,10,21,00,23,8.10
2016,10,21,00,24,8.10
2016,10,21,00,25,8.10
2016,10,21,00,26,8.10
2016,10,21,00,27,8.10
2016,10,21,00,28,8.10
2016,10,21,00,29,8.10
2016,10,21,00,30,8.10
2016,10,21,00,31,8.10
2016,10,21,00,32,8.10
2016,10,21,00,33,8.00
2016,10,21,00,34,8.00
2016,10,21,00,35,8.00
2016,10,21,00,36,8.00
2016,10,21,00,37,7.90
2016,10,21,00,38,7.90
2016,10,21,00,39,7.90
2016,10,21,00,40,7.90
2016,10,21,00,41,7.90
2016,10,21,00,42,7.90
2016,10,21,00,43,7.90
2016,10,21,00,44,7.90
2016,10,21,00,45,7.90
2016,10,21,00,46,7.90
2016,10,21,00,47,7.90
2016,10,21,00,48,7.90
2016,10,21,00,49,7.90
2016,10,21,00,50,7.90
2016,10,21,00,51,7.90
2016,10,21,00,52,7.90
2016,10,21,00,53,7.90
2016,10,21,00,54,7.80
2016,10,21,00,55,7.80
2016,10,21,00,56,7.80
2016,10,21,00,57,7.80
2016,10,21,00,58,7.80
2016,10,21,00,59,7.80
2016,10,21,01,00,7.80
2016,10,21,01,01,7.80
2016,10,21,01,02,7.80
2016,10,21,01,03,7.80
2016,10,21,01,04,7.80
2016,10,21,01,05,7.80
2016,10,21,01,06,7.80
2016,10,21,01,07,7.70
2016,10,21,01,08,7.70
2016,10,21,01,09,7.70
2016,10,21,01,10,7.70
2016,10,21,01,11,7.70
2016,10,21,01,12,7.70
2016,10,21,01,13,7.70
2016,10,21,01,14,7.60
2016,10,21,01,15,7.60
2016,10,21,01,16,7.60
2016,10,21,01,17,7.60
2016,10,21,01,18,7.60
2016,10,21,01,19,7.60
2016,10,21,01,20,7.60
2016,10,21,01,21,7.70
2016,10,21,01,22,7.70
2016,10,21,01,23,7.70
2016,10,21,01,24,7.70
2016,10,21,01,25,7.70
2016,10,21,01,26,7.70
2016,10,21,01,27,7.70
2016,10,21,01,28,7.70
2016,10,21,01,29,7.60
2016,10,21,01,30,7.60
2016,10,21,01,31,7.60
2016,10,21,01,32,7.60
2016,10,21,01,33,7.60
2016,10,21,01,34,7.60
2016,10,21,01,35,7.60
2016,10,21,01,36,7.60
2016,10,21,01,37,7.60
2016,10,21,01,38,7.60
2016,10,21,01,39,7.60
2016,10,21,01,40,7.60
2016,10,21,01,41,7.50
2016,10,21,01,42,7.50
2016,10,21,01,43,7.50
2016,10,21,01,44,7.50
2016,10,21,01,45,7.50
2016,10,21,01,46,7.50
2016,10,21,01,47,7.50
2016,10,21,01,48,7.40
2016,10,21,01,49,7.40
2016,10,21,01,50,7.40
2016,10,21,01,51,7.40
2016,10,21,01,52,7.40
2016,10,21,01,53,7.40
2016,10,21,01,54,7.40
2016,10,21,01,55,7.40
2016,10,21,01,56,7.40
2016,10,21,01,57,7.40
2016,10,21,01,58,7.40
2016,10,21,01,59,7.30
2016,10,21,02,00,7.30
2016,10,21,02,01,7.30
2016,10,21,02,02,7.30
2016,10,21,02,03,7.30
2016,10,21,02,04,7.30
2016,10,21,02,05,7.30
2016,10,21,02,06,7.30
2016,10,21,02,07,7.30
2016,10,21,02,08,7.30
2016,10,21,02,09,7.30
2016,10,21,02,10,7.30
2016,10,21,02,11,7.30
2016,10,21,02,12,7.30
2016,10,21,02,13,7.30
2016,10,21,02,14,7.20
2016,10,21,02,15,7.20
2016,10,21,02,16,7.20
2016,10,21,02,17,7.20
2016,10,21,02,18,7.20
2016,10,21,02,19,7.20
2016,10,21,02,20,7.20
2016,10,21,02,21,7.20
2016,10,21,02,22,7.20
2016,10,21,02,23,7.20
2016,10,21,02,24,7.10
2016,10,21,02,25,7.10
2016,10,21,02,26,7.10
2016,10,21,02,27,7.10
2016,10,21,02,28,7.10
2016,10,21,02,29,7.10
2016,10,21,02,30,7.10
2016,10,21,02,31,7.10
2016,10,21,02,32,7.10
2016,10,21,02,33,7.10
2016,10,21,02,34,7.10
2016,10,21,02,35,7.10
2016,10,21,02,36,7.10
2016,10,21,02,37,7.10
2016,10,21,02,38,7.10
2016,10,21,02,39,7.10
2016,10,21,02,40,7.10
2016,10,21,02,41,7.10
2016,10,21,02,42,7.10
2016,10,21,02,43,7.10
2016,10,21,02,44,7.10
2016,10,21,02,45,7.10
2016,10,21,02,46,7.10
2016,10,21,02,47,7.10
2016,10,21,02,48,7.10
2016,10,21,02,49,7.10
2016,10,21,02,50,7.10
2016,10,21,02,51,7.10
2016,10,21,02,52,7.10
2016,10,21,02,53,7.10
2016,10,21,02,54,7.10
2016,10,21,02,55,7.10
2016,10,21,02,56,7.10
2016,10,21,02,57,7.10
2016,10,21,02,58,7.10
2016,10,21,02,59,7.10
2016,10,21,03,00,7.10
2016,10,21,03,01,7.10
2016,10,21,03,02,7.20
2016,10,21,03,03,7.20
2016,10,21,03,04,7.20
2016,10,21,03,05,7.20
2016,10,21,03,06,7.20
2016,10,21,03,07,7.20
2016,10,21,03,08,7.30
2016,10,21,03,09,7.30
2016,10,21,03,10,7.30
2016,10,21,03,11,7.30
2016,10,21,03,12,7.30
2016,10,21,03,13,7.30
2016,10,21,03,14,7.30
2016,10,21,03,15,7.30
2016,10,21,03,16,7.40
2016,10,21,03,17,7.40
2016,10,21,03,18,7.40
2016,10,21,03,19,7.40
2016,10,21,03,20,7.40
2016,10,21,03,21,7.40
2016,10,21,03,22,7.50
2016,10,21,03,23,7.50
2016,10,21,03,24,7.50
2016,10,21,03,25,7.50
2016,10,21,03,26,7.50
2016,10,21,03,27,7.60
2016,10,21,03,28,7.60
2016,10,21,03,29,7.60
2016,10,21,03,30,7.60
2016,10,21,03,31,7.60
2016,10,21,03,32,7.60
2016,10,21,03,33,7.70
2016,10,21,03,34,7.70
2016,10,21,03,35,7.70
2016,10,21,03,36,7.70
2016,10,21,03,37,7.70
2016,10,21,03,38,7.70
2016,10,21,03,39,7.70
2016,10,21,03,40,7.70
2016,10,21,03,41,7.80
2016,10,21,03,42,7.80
2016,10,21,03,43,7.80
2016,10,21,03,44,7.80
2016,10,21,03,45,7.80
2016,10,21,03,46,7.80
2016,10,21,03,47,7.80
2016,10,21,03,48,7.80
2016,10,21,03,49,7.90
2016,10,21,03,50,7.90
2016,10,21,03,51,7.90
2016,10,21,03,52,7.90
2016,10,21,03,53,7.90
2016,10,21,03,54,7.90
2016,10,21,03,55,7.90
2016,10,21,03,56,7.90
2016,10,21,03,57,7.90
2016,10,21,03,58,8.00
2016,10,21,03,59,8.00
2016,10,21,04,00,8.00
2016,10,21,04,01,8.00
2016,10,21,04,02,8.00
2016,10,21,04,03,8.00
2016,10,21,04,04,8.00
2016,10,21,04,05,8.10
2016,10,21,04,06,8.10
2016,10,21,04,07,8.10
2016,10,21,04,08,8.10
2016,10,21,04,09,8.10
2016,10,21,04,10,8.10
2016,10,21,04,11,8.10
2016,10,21,04,12,8.10
2016,10,21,04,13,8.20
2016,10,21,04,14,8.20
2016,10,21,04,15,8.20
2016,10,21,04,16,8.20
2016,10,21,04,17,8.20
2016,10,21,04,18,8.20
2016,10,21,04,19,8.20
2016,10,21,04,20,8.20
2016,10,21,04,21,8.30
2016,10,21,04,22,8.30
2016,10,21,04,23,8.30
2016,10,21,04,24,8.30
2016,10,21,04,25,8.30
2016,10,21,04,26,8.30
2016,10,21,04,27,8.30
2016,10,21,04,28,8.30
2016,10,21,04,29,8.30
2016,10,21,04,30,8.30
2016,10,21,04,31,8.30
2016,10,21,04,32,8.30
2016,10,21,04,33,8.30
2016,10,21,04,34,8.30
2016,10,21,04,35,8.30
2016,10,21,04,36,8.40
2016,10,21,04,37,8.40
2016,10,21,04,38,8.40
2016,10,21,04,39,8.40
2016,10,21,04,40,8.40
2016,10,21,04,41,8.40
2016,10,21,04,42,8.40
2016,10,21,04,43,8.40
2016,10,21,04,44,8.40
2016,10,21,04,45,8.40
2016,10,21,04,46,8.40
2016,10,21,04,47,8.50
2016,10,21,04,48,8.50
2016,10,21,04,49,8.50
2016,10,21,04,50,8.50
2016,10,21,04,51,8.60
2016,10,21,04,52,8.60
2016,10,21,04,53,8.60
2016,10,21,04,54,8.60
2016,10,21,04,55,8.60
2016,10,21,04,56,8.60
2016,10,21,04,57,8.60
2016,10,21,04,58,8.60
2016,10,21,04,59,8.60
2016,10,21,05,00,8.60
2016,10,21,05,01,8.60
2016,10,21,05,02,8.70
2016,10,21,05,03,8.70
2016,10,21,05,04,8.70
2016,10,21,05,05,8.70
2016,10,21,05,06,8.70
2016,10,21,05,07,8.70
2016,10,21,05,08,8.70
2016,10,21,05,09,8.70
2016,10,21,05,10,8.70
2016,10,21,05,11,8.70
2016,10,21,05,12,8.70
2016,10,21,05,13,8.70
2016,10,21,05,14,8.70
2016,10,21,05,15,8.70
2016,10,21,05,16,8.70
2016,10,21,05,17,8.80
2016,10,21,05,18,8.80
2016,10,21,05,19,8.80
2016,10,21,05,20,8.80
2016,10,21,05,21,8.80
2016,10,21,05,22,8.80
2016,10,21,05,23,8.80
2016,10,21,05,24,8.80
2016,10,21,05,25,8.80
2016,10,21,05,26,8.80
2016,10,21,05,27,8.80
2016,10,21,05,28,8.80
2016,10,21,05,29,8.80
2016,10,21,05,30,8.80
2016,10,21,05,31,8.90
2016,10,21,05,32,8.90
2016,10,21,05,33,8.90
2016,10,21,05,34,8.90
2016,10,21,05,35,8.90
2016,10,21,05,36,8.90
2016,10,21,05,37,8.90
2016,10,21,05,38,8.90
2016,10,21,05,39,8.90
2016,10,21,05,40,8.90
2016,10,21,05,41,8.90
2016,10,21,05,42,8.90
2016,10,21,05,43,8.90
2016,10,21,08,33,9.40
2016,10,21,08,34,9.50
2016,10,21,08,35,9.50
2016,10,21,08,36,9.50
2016,10,21,08,37,9.60
2016,10,21,08,38,9.60
2016,10,21,08,39,9.60
2016,10,21,08,40,9.60
2016,10,21,08,41,9.70
2016,10,21,08,42,9.70
2016,10,21,08,43,9.70
2016,10,21,08,44,9.70
2016,10,21,08,45,9.70
2016,10,21,08,46,9.70
2016,10,21,08,47,9.80
2016,10,21,08,48,9.80
2016,10,21,08,49,9.80
2016,10,21,08,50,9.80
2016,10,21,08,51,9.80
2016,10,21,08,52,9.80
2016,10,21,08,53,9.80
2016,10,21,08,54,9.80
2016,10,21,08,55,9.80
2016,10,21,08,56,9.80
2016,10,21,08,57,9.80
2016,10,21,08,58,9.80
2016,10,21,08,59,9.80
2016,10,21,09,00,9.80
2016,10,21,09,01,9.80
2016,10,21,09,02,9.80
2016,10,21,09,03,9.80
2016,10,21,09,04,9.80
2016,10,21,09,05,9.80
2016,10,21,09,06,9.80
2016,10,21,09,07,9.80
2016,10,21,09,08,9.80
2016,10,21,09,09,9.80
2016,10,21,09,10,9.80
2016,10,21,09,11,9.80
2016,10,21,09,12,9.80
2016,10,21,09,13,9.80
2016,10,21,09,14,9.80
2016,10,21,09,15,9.80
2016,10,21,09,16,9.80
2016,10,21,09,17,9.80
2016,10,21,09,18,9.80
2016,10,21,09,19,9.80
2016,10,21,09,20,9.80
2016,10,21,09,21,9.80
2016,10,21,09,22,9.80
2016,10,21,09,23,9.80
2016,10,21,09,24,9.80
2016,10,21,09,25,9.80
2016,10,21,09,26,9.80
2016,10,21,09,27,9.80
2016,10,21,09,28,9.80
2016,10,21,09,29,9.80
2016,10,21,09,30,9.80
2016,10,21,09,31,9.80
2016,10,21,09,32,9.80
2016,10,21,09,33,9.80
2016,10,21,09,34,9.80
2016,10,21,09,35,9.90
2016,10,21,09,36,9.90
2016,10,21,09,37,9.90
2016,10,21,09,38,9.90
2016,10,21,09,39,9.90
2016,10,21,09,40,9.90
2016,10,21,09,41,9.90
2016,10,21,09,42,9.90
2016,10,21,09,43,9.90
2016,10,21,09,44,9.90
2016,10,21,09,45,9.90
2016,10,21,09,46,9.90
2016,10,21,09,47,9.90
2016,10,21,09,48,9.90
2016,10,21,09,49,9.90
2016,10,21,09,50,9.90
2016,10,21,09,51,9.90
2016,10,21,09,52,9.90
2016,10,21,09,53,9.90
2016,10,21,09,54,9.90
2016,10,21,09,55,10.00
2016,10,21,09,56,10.00
2016,10,21,09,57,10.00
2016,10,21,09,58,10.00
2016,10,21,09,59,10.00
2016,10,21,10,00,10.10
2016,10,21,10,01,10.10
2016,10,21,10,02,10.10
2016,10,21,10,03,10.10
2016,10,21,10,04,10.10
2016,10,21,10,05,10.10
2016,10,21,10,06,10.10
2016,10,21,10,07,10.10
2016,10,21,10,08,10.20
2016,10,21,10,09,10.20
2016,10,21,10,10,10.20
2016,10,21,10,11,10.20
2016,10,21,10,12,10.20
2016,10,21,10,13,10.20
2016,10,21,10,14,10.20
2016,10,21,10,15,10.20
2016,10,21,10,16,10.20
2016,10,21,10,17,10.20
2016,10,21,10,18,10.30
2016,10,21,10,19,10.30
2016,10,21,10,20,10.30
2016,10,21,10,21,10.30
2016,10,21,10,22,10.30
2016,10,21,10,23,10.30
2016,10,21,10,24,10.40
2016,10,21,10,25,10.40
2016,10,21,10,26,10.40
2016,10,21,10,27,10.40
2016,10,21,10,28,10.40
2016,10,21,10,29,10.40
2016,10,21,10,30,10.50
2016,10,21,10,31,10.50
2016,10,21,10,32,10.50
2016,10,21,10,33,10.50
2016,10,21,10,34,10.60
2016,10,21,10,35,10.60
2016,10,21,10,36,10.60
2016,10,21,10,37,10.60
2016,10,21,10,38,10.60
2016,10,21,10,39,10.60
2016,10,21,10,40,10.60
2016,10,21,10,41,10.70
2016,10,21,10,42,10.70
2016,10,21,10,43,10.70
2016,10,21,10,44,10.70
2016,10,21,10,45,10.70
2016,10,21,10,46,10.80
2016,10,21,10,47,10.80
2016,10,21,10,48,10.80
2016,10,21,10,49,10.80
2016,10,21,10,50,10.80
2016,10,21,10,51,10.90
2016,10,21,10,52,10.90
2016,10,21,10,53,10.90
2016,10,21,10,54,11.00
2016,10,21,10,55,11.00
2016,10,21,10,56,11.10
2016,10,21,10,57,11.10
2016,10,21,10,58,11.10
2016,10,21,10,59,11.20
2016,10,21,11,00,11.20
2016,10,21,11,01,11.20
2016,10,21,11,02,11.20
2016,10,21,11,03,11.30
2016,10,21,11,04,11.30
2016,10,21,11,05,11.30
2016,10,21,11,06,11.30
2016,10,21,11,07,11.30
2016,10,21,11,08,11.30
2016,10,21,11,09,11.30
2016,10,21,11,10,11.30
2016,10,21,11,11,11.30
2016,10,21,11,12,11.30
2016,10,21,11,13,11.30
2016,10,21,11,14,11.30
2016,10,21,11,15,11.40
2016,10,21,11,16,11.40
2016,10,21,11,17,11.40
2016,10,21,11,18,11.40
2016,10,21,11,19,11.40
2016,10,21,11,20,11.50
2016,10,21,11,21,11.50
2016,10,21,11,22,11.50
2016,10,21,11,23,11.60
2016,10,21,11,24,11.60
2016,10,21,11,25,11.60
2016,10,21,11,26,11.60
2016,10,21,11,27,11.70
2016,10,21,11,28,11.70
2016,10,21,11,29,11.70
2016,10,21,11,30,11.70
2016,10,21,11,31,11.80
2016,10,21,11,32,11.80
2016,10,21,11,33,11.80
2016,10,21,11,34,11.80
2016,10,21,11,35,11.80
2016,10,21,11,36,11.80
2016,10,21,11,37,11.90
2016,10,21,11,38,11.90
2016,10,21,11,39,11.90
2016,10,21,11,40,11.90
2016,10,21,11,41,11.90
2016,10,21,11,42,12.00
2016,10,21,11,43,12.00
2016,10,21,11,44,12.10
2016,10,21,11,45,12.10
2016,10,21,11,46,12.10
2016,10,21,11,47,12.10
2016,10,21,11,48,12.10
2016,10,21,11,49,12.10
2016,10,21,11,50,12.20
2016,10,21,11,51,12.20
2016,10,21,11,52,12.20
2016,10,21,11,53,12.20
2016,10,21,11,54,12.20
2016,10,21,11,55,12.20
2016,10,21,11,56,12.20
2016,10,21,11,57,12.20
2016,10,21,11,58,12.20
2016,10,21,11,59,12.20
2016,10,21,12,00,12.30
2016,10,21,12,01,12.30
2016,10,21,12,02,12.30
2016,10,21,12,03,12.30
2016,10,21,12,04,12.30
2016,10,21,12,05,12.30
2016,10,21,12,06,12.40
2016,10,21,12,07,12.40
2016,10,21,12,08,12.40
2016,10,21,12,09,12.40
2016,10,21,12,10,12.50
2016,10,21,12,11,12.50
2016,10,21,12,12,12.60
2016,10,21,12,13,12.60
2016,10,21,12,14,12.60
2016,10,21,12,15,12.70
2016,10,21,12,16,12.70
2016,10,21,12,17,12.80
2016,10,21,12,18,12.80
2016,10,21,12,19,12.90
2016,10,21,12,20,12.90
2016,10,21,12,21,13.00
2016,10,21,12,22,13.00
2016,10,21,12,23,13.10
2016,10,21,12,24,13.10
2016,10,21,12,25,13.10
2016,10,21,12,26,13.10
2016,10,21,12,27,13.10
2016,10,21,12,28,13.20
2016,10,21,12,29,13.20
2016,10,21,12,30,13.20
2016,10,21,12,31,13.20
2016,10,21,12,32,13.20
2016,10,21,12,33,13.20
2016,10,21,12,34,13.30
2016,10,21,12,35,13.30
2016,10,21,12,36,13.30
2016,10,21,12,37,13.30
2016,10,21,12,38,13.30
2016,10,21,12,39,13.30
2016,10,21,12,40,13.30
2016,10,21,12,41,13.20
2016,10,21,12,42,13.20
2016,10,21,12,43,13.30
2016,10,21,12,44,13.30
2016,10,21,12,45,13.30
2016,10,21,12,46,13.30
2016,10,21,12,47,13.30
2016,10,21,12,48,13.30
2016,10,21,12,49,13.30
2016,10,21,12,50,13.30
2016,10,21,12,51,13.30
2016,10,21,12,52,13.20
2016,10,21,12,53,13.20
2016,10,21,12,54,13.20
2016,10,21,12,55,13.20
2016,10,21,12,56,13.10
2016,10,21,12,57,13.10
2016,10,21,12,58,13.10
2016,10,21,12,59,13.00
2016,10,21,13,00,13.00
2016,10,21,13,01,12.90
2016,10,21,13,02,12.90
2016,10,21,13,03,12.90
2016,10,21,13,04,12.90
2016,10,21,13,05,12.90
2016,10,21,13,06,12.80
2016,10,21,13,07,12.80
2016,10,21,13,08,12.80
2016,10,21,13,09,12.80
2016,10,21,13,10,12.80
2016,10,21,13,11,12.80
2016,10,21,13,12,12.80
2016,10,21,13,13,12.80
2016,10,21,13,14,12.80
2016,10,21,13,15,12.80
2016,10,21,13,16,12.80
2016,10,21,13,17,12.80
2016,10,21,13,18,12.80
2016,10,21,13,19,12.80
2016,10,21,13,20,12.80
2016,10,21,13,21,12.80
2016,10,21,13,22,12.70
2016,10,21,13,23,12.70
2016,10,21,13,24,12.70
2016,10,21,13,25,12.60
2016,10,21,13,26,12.60
2016,10,21,13,27,12.60
2016,10,21,13,28,12.60
2016,10,21,13,29,12.60
2016,10,21,13,30,12.50
2016,10,21,13,31,12.50
2016,10,21,13,32,12.50
2016,10,21,13,33,12.50
2016,10,21,13,34,12.50
2016,10,21,13,35,12.40
2016,10,21,13,36,12.40
2016,10,21,13,37,12.40
2016,10,21,13,38,12.40
2016,10,21,13,39,12.30
2016,10,21,13,40,12.30
2016,10,21,13,41,12.30
2016,10,21,13,42,12.30
2016,10,21,13,43,12.30
2016,10,21,13,44,12.30
2016,10,21,13,45,12.30
2016,10,21,13,46,12.20
2016,10,21,13,47,12.20
2016,10,21,13,48,12.20
2016,10,21,13,49,12.20
2016,10,21,13,50,12.10
2016,10,21,13,51,12.10
2016,10,21,13,52,12.10
2016,10,21,13,53,12.10
2016,10,21,13,54,12.00
2016,10,21,13,55,12.00
2016,10,21,13,56,12.00
2016,10,21,13,57,12.00
2016,10,21,13,58,12.00
2016,10,21,13,59,12.00
2016,10,21,14,00,12.00
2016,10,21,14,01,12.00
2016,10,21,14,02,12.00
2016,10,21,14,03,12.00
2016,10,21,14,04,12.00
2016,10,21,14,05,12.00
2016,10,21,14,06,11.90
2016,10,21,14,07,11.90
2016,10,21,14,08,11.90
2016,10,21,14,09,11.90
2016,10,21,14,10,11.90
2016,10,21,14,11,11.90
2016,10,21,14,12,11.90
2016,10,21,14,13,11.90
2016,10,21,14,14,11.90
2016,10,21,14,15,11.90
2016,10,21,14,16,11.90
2016,10,21,14,17,11.90
2016,10,21,14,18,11.90
2016,10,21,14,19,11.90
2016,10,21,14,20,11.90
2016,10,21,14,21,11.90
2016,10,21,14,22,11.90
2016,10,21,14,23,11.90
2016,10,21,14,24,11.90
2016,10,21,14,25,11.90
2016,10,21,14,26,11.90
2016,10,21,14,27,11.80
2016,10,21,14,28,11.80
2016,10,21,14,29,11.80
2016,10,21,14,30,11.80
2016,10,21,14,31,11.80
2016,10,21,14,32,11.70
2016,10,21,14,33,11.70
2016,10,21,14,34,11.70
2016,10,21,14,35,11.70
2016,10,21,14,36,11.60
2016,10,21,14,37,11.60
2016,10,21,14,38,11.60
2016,10,21,14,39,11.60
2016,10,21,14,40,11.60
2016,10,21,14,41,11.60
2016,10,21,14,42,11.60
2016,10,21,14,43,11.60
2016,10,21,14,44,11.60
2016,10,21,14,45,11.50
2016,10,21,14,46,11.50
2016,10,21,14,47,11.50
2016,10,21,14,48,11.50
2016,10,21,14,49,11.50
2016,10,21,14,50,11.50
2016,10,21,14,51,11.50
2016,10,21,14,52,11.50
2016,10,21,14,53,11.50
2016,10,21,14,54,11.40
2016,10,21,14,55,11.40
2016,10,21,14,56,11.40
2016,10,21,14,57,11.40
2016,10,21,14,58,11.50
2016,10,21,14,59,11.50
2016,10,21,15,00,11.50
2016,10,21,15,01,11.50
2016,10,21,15,02,11.50
2016,10,21,15,03,11.50
2016,10,21,15,04,11.50
2016,10,21,15,05,11.50
2016,10,21,15,06,11.50
2016,10,21,15,07,11.50
2016,10,21,15,08,11.50
2016,10,21,15,09,11.60
2016,10,21,15,10,11.60
2016,10,21,15,11,11.60
2016,10,21,15,12,11.60
2016,10,21,15,13,11.60
2016,10,21,15,14,11.60
2016,10,21,15,15,11.60
2016,10,21,15,16,11.60
2016,10,21,15,17,11.60
2016,10,21,15,18,11.60
2016,10,21,15,19,11.70
2016,10,21,15,20,11.70
2016,10,21,15,21,11.70
2016,10,21,15,22,11.70
2016,10,21,15,23,11.70
2016,10,21,15,24,11.70
2016,10,21,15,25,11.70
2016,10,21,15,26,11.70
2016,10,21,15,27,11.70
2016,10,21,15,28,11.70
2016,10,21,15,29,11.70
2016,10,21,15,30,11.70
2016,10,21,15,31,11.70
2016,10,21,15,32,11.80
2016,10,21,15,33,11.80
2016,10,21,15,34,11.80
2016,10,21,15,35,11.80
2016,10,21,15,36,11.80
2016,10,21,15,37,11.80
2016,10,21,15,38,11.80
2016,10,21,15,39,11.90
2016,10,21,15,40,11.90
2016,10,21,15,41,11.90
2016,10,21,15,42,11.90
2016,10,21,15,43,11.90
2016,10,21,15,44,11.90
2016,10,21,15,45,11.90
2016,10,21,15,46,11.90
2016,10,21,15,47,11.90
2016,10,21,15,48,11.90
2016,10,21,15,49,11.90
2016,10,21,15,50,11.90
2016,10,21,15,51,11.90
2016,10,21,15,52,11.90
2016,10,21,15,53,11.90
2016,10,21,15,54,11.90
2016,10,21,15,55,11.90
2016,10,21,15,56,11.90
2016,10,21,15,57,11.90
2016,10,21,15,58,11.90
2016,10,21,15,59,11.90
2016,10,21,16,00,11.90
2016,10,21,16,01,11.90
2016,10,21,16,02,11.90
2016,10,21,16,03,11.90
2016,10,21,16,04,12.00
2016,10,21,16,05,12.00
2016,10,21,16,06,12.00
2016,10,21,16,07,12.00
2016,10,21,16,08,12.00
2016,10,21,16,09,12.00
2016,10,21,16,10,12.00
2016,10,21,16,11,12.00
2016,10,21,16,12,12.00
2016,10,21,16,13,12.00
2016,10,21,16,14,11.90
2016,10,21,16,15,11.90
2016,10,21,16,16,11.90
2016,10,21,16,17,11.90
2016,10,21,16,18,11.90
2016,10,21,16,19,11.90
2016,10,21,16,20,11.90
2016,10,21,16,21,11.90
2016,10,21,16,22,11.90
2016,10,21,16,23,11.90
2016,10,21,16,24,11.90
2016,10,21,16,25,11.80
2016,10,21,16,26,11.80
2016,10,21,16,27,11.80
2016,10,21,16,28,11.80
2016,10,21,16,29,11.80
2016,10,21,16,30,11.80
2016,10,21,16,31,11.70
2016,10,21,16,32,11.70
2016,10,21,16,33,11.70
2016,10,21,16,34,11.60
2016,10,21,16,35,11.60
2016,10,21,16,36,11.60
2016,10,21,16,37,11.60
2016,10,21,16,38,11.60
2016,10,21,16,39,11.60
2016,10,21,16,40,11.60
2016,10,21,16,41,11.60
2016,10,21,16,42,11.60
2016,10,21,16,43,11.60
2016,10,21,16,44,11.50
2016,10,21,16,45,11.50
2016,10,21,16,46,11.50
2016,10,21,16,47,11.50
2016,10,21,16,48,11.40
2016,10,21,16,49,11.40
2016,10,21,16,50,11.40
2016,10,21,16,51,11.40
2016,10,21,16,52,11.40
2016,10,21,16,53,11.40
2016,10,21,16,54,11.40
2016,10,21,16,55,11.40
2016,10,21,16,56,11.40
2016,10,21,16,57,11.30
2016,10,21,16,58,11.30
2016,10,21,16,59,11.30
2016,10,21,17,00,11.30
2016,10,21,17,01,11.30
2016,10,21,17,02,11.30
2016,10,21,17,03,11.30
2016,10,21,17,04,11.30
2016,10,21,17,05,11.30
2016,10,21,17,06,11.30
2016,10,21,17,07,11.30
2016,10,21,17,08,11.30
2016,10,21,17,09,11.30
2016,10,21,17,10,11.30
2016,10,21,17,11,11.30
2016,10,21,17,12,11.30
2016,10,21,17,13,11.20
2016,10,21,17,14,11.20
2016,10,21,17,15,11.20
2016,10,21,17,16,11.20
2016,10,21,17,17,11.20
2016,10,21,17,18,11.20
2016,10,21,17,19,11.20
2016,10,21,17,20,11.20
2016,10,21,17,21,11.20
2016,10,21,17,22,11.20
2016,10,21,17,23,11.20
2016,10,21,17,24,11.20
2016,10,21,17,25,11.20
2016,10,21,17,26,11.20
2016,10,21,17,27,11.20
2016,10,21,17,28,11.10
2016,10,21,17,29,11.10
2016,10,21,17,30,11.10
2016,10,21,17,31,11.10
2016,10,21,17,32,11.10
2016,10,21,17,33,11.10
2016,10,21,17,34,11.10
2016,10,21,17,35,11.10
2016,10,21,17,36,11.10
2016,10,21,17,37,11.10
2016,10,21,17,38,11.10
2016,10,21,17,39,11.10
2016,10,21,17,40,11.10
2016,10,21,17,41,11.10
2016,10,21,17,42,11.10
2016,10,21,17,43,11.10
2016,10,21,17,44,11.10
2016,10,21,17,45,11.10
2016,10,21,17,46,11.10
2016,10,21,17,47,11.10
2016,10,21,17,48,11.10
2016,10,21,17,49,11.10
2016,10,21,17,50,11.10
2016,10,21,17,51,11.10
2016,10,21,17,52,11.10
2016,10,21,17,53,11.10
2016,10,21,17,54,11.10
2016,10,21,17,55,11.10
2016,10,21,17,56,11.10
2016,10,21,17,57,11.10
2016,10,21,17,58,11.10
2016,10,21,17,59,11.10
2016,10,21,18,00,11.10
2016,10,21,18,01,11.10
2016,10,21,18,02,11.10
2016,10,21,18,03,11.10
2016,10,21,18,04,11.10
2016,10,21,18,05,11.00
2016,10,21,18,06,11.00
2016,10,21,18,07,11.00
2016,10,21,18,08,11.00
2016,10,21,18,09,11.00
2016,10,21,18,10,11.00
2016,10,21,18,11,11.00
2016,10,21,18,12,11.00
2016,10,21,18,13,11.00
2016,10,21,18,14,10.90
2016,10,21,18,15,10.90
2016,10,21,18,16,10.90
2016,10,21,18,17,10.90
2016,10,21,18,18,10.90
2016,10,21,18,19,10.90
2016,10,21,18,20,10.90
2016,10,21,18,21,10.90
2016,10,21,18,22,10.90
2016,10,21,18,23,10.80
2016,10,21,18,24,10.80
2016,10,21,18,25,10.80
2016,10,21,18,26,10.80
2016,10,21,18,27,10.80
2016,10,21,18,28,10.80
2016,10,21,18,29,10.80
2016,10,21,18,30,10.80
2016,10,21,18,31,10.70
2016,10,21,18,32,10.70
2016,10,21,18,33,10.70
2016,10,21,18,34,10.70
2016,10,21,18,35,10.70
2016,10,21,18,36,10.70
2016,10,21,18,37,10.70
2016,10,21,18,38,10.70
2016,10,21,18,39,10.70
2016,10,21,18,40,10.70
2016,10,21,18,41,10.70
2016,10,21,18,42,10.70
2016,10,21,18,43,10.70
2016,10,21,18,44,10.70
2016,10,21,18,45,10.70
2016,10,21,18,46,10.70
2016,10,21,18,47,10.70
2016,10,21,18,48,10.70
2016,10,21,18,49,10.70
2016,10,21,18,50,10.70
2016,10,21,18,51,10.70
2016,10,21,18,52,10.70
2016,10,21,18,53,10.70
2016,10,21,18,54,10.70
2016,10,21,18,55,10.70
2016,10,21,18,56,10.70
2016,10,21,18,57,10.70
2016,10,21,18,58,10.70
2016,10,21,18,59,10.70
2016,10,21,19,00,10.70
2016,10,21,19,01,10.70
2016,10,21,19,02,10.70
2016,10,21,19,03,10.70
2016,10,21,19,04,10.70
2016,10,21,19,05,10.70
2016,10,21,19,06,10.70
2016,10,21,19,07,10.70
2016,10,21,19,08,10.70
2016,10,21,19,09,10.70
2016,10,21,19,10,10.60
2016,10,21,19,11,10.60
2016,10,21,19,12,10.60
2016,10,21,19,13,10.60
2016,10,21,19,14,10.60
2016,10,21,19,15,10.60
2016,10,21,19,16,10.60
2016,10,21,19,17,10.50
2016,10,21,19,18,10.50
2016,10,21,19,19,10.50
2016,10,21,19,20,10.50
2016,10,21,19,21,10.50
2016,10,21,19,22,10.50
2016,10,21,19,23,10.40
2016,10,21,19,24,10.40
2016,10,21,19,25,10.40
2016,10,21,19,26,10.40
2016,10,21,19,27,10.40
2016,10,21,19,28,10.40
2016,10,21,19,29,10.40
2016,10,21,19,30,10.40
2016,10,21,19,31,10.40
2016,10,21,19,32,10.40
2016,10,21,19,33,10.40
2016,10,21,19,34,10.40
2016,10,21,19,35,10.40
2016,10,21,19,36,10.40
2016,10,21,19,37,10.40
2016,10,21,19,38,10.30
2016,10,21,19,39,10.40
2016,10,21,19,40,10.30
2016,10,21,19,41,10.30
2016,10,21,19,42,10.30
2016,10,21,19,43,10.30
2016,10,21,19,44,10.30
2016,10,21,19,45,10.30
2016,10,21,19,46,10.30
2016,10,21,19,47,10.30
2016,10,21,19,48,10.30
2016,10,21,19,49,10.30
2016,10,21,19,50,10.30
2016,10,21,19,51,10.30
2016,10,21,19,52,10.30
2016,10,21,19,53,10.30
2016,10,21,19,54,10.30
2016,10,21,19,55,10.30
2016,10,21,19,56,10.30
2016,10,21,19,57,10.40
2016,10,21,19,58,10.40
2016,10,21,19,59,10.40
2016,10,21,20,00,10.40
2016,10,21,20,01,10.40
2016,10,21,20,02,10.40
2016,10,21,20,03,10.40
2016,10,21,20,04,10.40
2016,10,21,20,05,10.40
2016,10,21,20,06,10.40
2016,10,21,20,07,10.40
2016,10,21,20,08,10.40
2016,10,21,20,09,10.40
2016,10,21,20,10,10.40
2016,10,21,20,11,10.40
2016,10,21,20,12,10.40
2016,10,21,20,13,10.40
2016,10,21,20,14,10.40
2016,10,21,20,15,10.40
2016,10,21,20,16,10.40
2016,10,21,20,17,10.40
2016,10,21,20,18,10.40
2016,10,21,20,19,10.40
2016,10,21,20,20,10.40
2016,10,21,20,21,10.40
2016,10,21,20,22,10.40
2016,10,21,20,23,10.40
2016,10,21,20,24,10.40
2016,10,21,20,25,10.40
2016,10,21,20,26,10.40